Погода Шамары

Погода Шамары : погода сейчас, прогноз погоды и архив. Всё, что Вы хотите узнать о погоде Шамары!

Поиск расширенной информации на нашем сайте:

Другие новости

Новости СМИ2

Главная страница сайта

Новости сайта

03.07.2017

Напоминаем, что на нашем специализированном сайте Метеоцентр.Азия вы можете получить высокодетализированные автоматические прогнозы погоды по пунктам России, СНГ и мира в авиационном формате (включающие направление и скорость ветра, видимость, явления погоды, количество и форму облачности, нижнюю и верхнюю границу облачности).


Погода Шамары - сегодня

Время (UTC), дата Ветер
(°,м/с) 
Видим.   Явления Облачность Т
(°С)
Тd
(°С)
f(%) Тe
(°С)
Pmin
(гПа)
dP
(гПа)
Po
(мм)
O2
(г/м3)
Тmin Tmax R s Состояние
почвы
18 21.11.17 тихо ()   10 км    8/0 средняя 
[Ac trans]
-2.7 -4.9 85 -3  1017.5  -1  740  302           
21 21.11.17 тихо ()   10 км    5/0 средняя 
[Ac trans]
-4 -5.5 89 -4  1017.4  -0.3  740  303           
00 22.11.17 080 (В) 10 км    ясно 
-6.3 -7.6 90 -6  1017.2  -0.5  739  306           
03 22.11.17 тихо ()   10 км    3/3 600 м средняя 
[Sc|Ac lent]
-8 -9.3 90 -8  1017.3  -0.2  739  308  -8      равномерный
сухой снег
100% 
06 22.11.17 090 (В) 20000 м    3/0 верхняя 
[Cc]
-7.5 -8.9 90 -7  1017.1  739  307  -8.8         
09 22.11.17 080 (В) 20000 м    4/0 верхняя 
[Ci sp]
-1.6 -5.3 76 -1  1015.3  -1.1  738  300           
12 22.11.17 070 (В) 20000 м    5/0 верхняя 
[Ci]
-2.7 -5.5 81 -2  1015.1  -0.4  738  301           
15 22.11.17 080 (В) 10 км    5/0 средняя 
[Ac As]
-5.7 -6.9 91 -5  1015  -0.4  738  304    -0.9       
18 22.11.17 тихо ()   10 км    3/0 средняя 
[Ac lent]
-7 -8.3 90 -7  1014.8  -0.4  737  306           
21 22.11.17 090 (В) 10 км    ясно 
-5.7 -6.9 91 -7  1014.2  -0.4  737  304           
00 23.11.17 тихо ()   10 км    ясно 
-4.5 -5.8 91 -5  1013.9  0.1  737  303           
03 23.11.17 060 (СВ) 10 км    3/0 средняя 
[Ac lent]
-6 -7.2 91 -6  1014.1  737  304  -7.1      равномерный
сухой снег
100% 
06 23.11.17 080 (В) 20000 м    9/1 600 м средняя, верхняя 
[Cu hum|Ac As|Ci sp]
-5.8 -7.1 90 -5  1014.2  0.1  737  304           
09 23.11.17 090 (В) 20000 м    9/5 600 м средняя, верхняя 
[Cu Sc|Ac cast|Ci]
-1.1 -4.2 79 -1  1013.7  737  299           
12 23.11.17 тихо ()   20000 м    10/6 600 м средняя 
[Cu Sc|Ac und]
-1.9 -3.9 86 -2  1013.6  -0.2  737  299           
15 23.11.17 080 (В) 10 км    4/3 600 м средняя 
[Cu hum|Ac lent]
-3.6 -4.8 91 -5  1014.2  0.4  737  302    +0.1       
18 23.11.17 тихо ()   4000 м  дымка  ясно 
-5.5 -6.7 91 -6  1015.1  0.6  738  304           
21 23.11.17 090 (В) 10 км    ясно 
-6.5 -7.8 90 -6  1016.4  1.1  739  306           
00 24.11.17 230 (ЮЗ) 10 км    ясно 
-6.9 -8.2 90 -7  1016.8  0.4  739  306           
03 24.11.17 110 (В) 10 км    3/0 средняя 
[Ac lent]
-7.9 -9.3 90 -8  1017.5  0.6  739  308  -8      равномерный
сухой снег
100% 
06 24.11.17 250 (З) 20000 м    8/0 средняя, верхняя 
[Ac As|Cc]
-7.8 -9.3 89 -8  1018.5  740  308  -8.8         
09 24.11.17 060 (СВ) 20000 м    9/0 верхняя 
[Cc]
-4 -6 86 -4  1018.9  0.8  741  303           
12 24.11.17 тихо ()   20000 м    9/1 600 м средняя, верхняя 
[Sc|Ac lent|Cs]
-2.8 -5.4 82 -3  1019.1  0.3  741  302           
15 24.11.17 050 (СВ) 10 км    8/0 средняя, верхняя 
[Ac trans|Cs]
-4.6 -6 90 -6  1020.3  742  305    -2.3       
18 24.11.17 040 (СВ) 10 км    9/9 600 м 
[Cu hum]
-3.6 -4.9 91 -5  1021.3  1.1  742  304           
Время (UTC), дата Ветер
(°,м/с) 
Видим.   Явления Облачность Т
(°С)
Тd
(°С)
f(%) Тe
(°С)
Pmin
(гПа)
dP
(гПа)
Po
(мм)
O2
(г/м3)
Тmin Tmax R s Состояние
почвы

Для получения пояснительной информации подведите курсор к названию столбца.

ПОГОДА Шамары - архив

Всё, что Вы хотите узнать о погоде Шамары - удобно и подробно!

Выберите нужную дату (начиная с 1 января 2015* года) и нажмите кнопку "Найти".
Будут отображены архивные сводки погоды по пункту Шамары, начиная с указанной даты.


Отображать данные в формате CSV (для использования в таблицах Excel)


Внимание! Наш архив погоды предназначен исключительно для личного некоммерческого использования в познавательных целях. Если Вам необходимы официальные справки о состоянии погоды (для производственных, юридических, коммерческих и т.п. целей), обращайтесь в органы Росгидромета.

*Примечание: данная дата относится к архиву по метеостанциям СССР (Россия, СНГ, Балтия).
Архив по метеостанциям Зарубежной Европы и Азии (кроме Китая) хранится 10 дней, по другим регионам земного шара (Китай, Африка, Америка, Австралия, Океания) - 1 день.

Шамары - район местоположения метеостанции


Название, широта, долгота, высота метеостанции:
Шамары 57.3°ш. 58.2°д. 244 м над ур. моря [Российская Федерация]

Дополнительная информация

В oтличие oт бoльшинства пoгoдных сайтoв мы публикуем пoдрoбную метеoинфoрмацию в детальнoм прoфессиoнальнoм фoрмате.

Характеристики температуры и влажнoсти вoздуха измеряются на высoте 2 м в тени вдали oт зданий и деревьев.
Скoрoсть ветра измеряется на высoте 10 м (на урoвне рoста челoвека скoрoсть ветра ниже в 1.5-2 раза). Если метеoстанция нахoдится в гoрoде или в лесу, тo скoрoсть ветра занижена на 2-4 м/с пo сравнению с oткрытым местoм. Скoрoсть ветра над акватoриями крупных рек и oзёр, а также на вершинах хoлмoв на 2-5 м/с выше, чем в oбычных услoвиях.
Атмoсфернoе давление в разных тoчках местнoсти мoжет значительнo oтличаться oт давления на метеoстанции, в зависимoсти oт услoвий рельефа (при пoдъёме на 10 м давление пoнижается примернo на 1 мм рт.ст.).